Retour au catalogue

STARLINK-32830

ActifCommunicationsVLEO
NORAD 63034·PAYLOAD·🇺🇸 United States

Lancé Feb 18, 2025 depuis Cape Canaveral Space Force Station

Loading…

Prochains Passages (prochaines 24 heures)

TLE

FraisSource: CelesTrak SupGP

Époque: Sep 14, 2026, 14:17 UTC

1 63034C 25034F   26257.59562500  .00006715  00000+0  21589-3 0  2577
2 63034  53.1581  99.2020 0001414  92.2502 134.3836 15.31705954    12

Suivez STARLINK-32830 en temps réel avec AllMySat

Download on the App Store